Weather History for Queen Beatrix Airport, Aruba

Change the Weather History Date:

Friday, November 1, 2013

  Actual Average Record
Temperature  
Mean Temperature 80 °F -  
Max Temperature 85 °F 86 °F - ()
Min Temperature 75 °F 77 °F - ()
Cooling Degree Days 15    
Growing Degree Days 30 (Base 50)    
Moisture  
Dew Point 75 °F    
Average Humidity 83    
Maximum Humidity 94    
Minimum Humidity 68    
Precipitation  
Precipitation 0.28 in - - ()
Sea Level Pressure  
Sea Level Pressure 29.79 in    
Wind  
Wind Speed 8 mph ()    
Max Wind Speed 13 mph    
Max Gust Speed -    
Visibility 7.0 miles    
Events Rain    
T = Trace of Precipitation, MM = Missing Value Source: Averaged Metar Reports

Daily Weather History Graph

Daily Weather History Graph

Search for Another Location

Airport:

Trip Planner

Search our weather history database for the weather conditions in past years. The results will help you decide how hot, cold, wet, or windy it might be!

Date:

Astronomy

Nov. 01, 2013 Rise Set
Actual Time 6:33 AM AST 6:13 PM AST
Civil Twilight 6:11 AM AST 6:35 PM AST
Nautical Twilight 5:46 AM AST 7:00 PM AST
Astronomical Twilight 5:21 AM AST 7:26 PM AST
Moon 4:41 AM AST (11/1) 4:50 PM AST (11/1)
Length of Visible Light 12h 24m
Length of Day
11h 40m
Waning Crescent, 4% of the Moon is Illuminated
Nov 1
Waning Crescent
Nov 3
New
Nov 10
First Quarter
Nov 17
Full
Nov 25
Last Quarter

Hourly Weather History & Observations

Time (AST) Temp. Heat Index Dew Point Humidity Pressure Visibility Wind Dir Wind Speed Gust Speed Precip Events Conditions
12:00 AM 78.8 °F - 75.2 °F 89% 29.83 in 6.2 mi East 6.9 mph - N/A   Partly Cloudy
1:00 AM 78.8 °F - 73.4 °F 83% 29.80 in 6.2 mi East 9.2 mph - N/A   Scattered Clouds
2:00 AM 79 °F - 74 °F 80% 29.79 in 16 mi East 8.1 mph - -   Partly Cloudy
2:00 AM 78.8 °F - 73.4 °F 83% 29.77 in 6.2 mi East 8.1 mph - N/A   Scattered Clouds
3:00 AM 78.8 °F - 75.2 °F 89% 29.77 in 6.2 mi East 10.4 mph - N/A   Partly Cloudy
4:00 AM 78.8 °F - 73.4 °F 83% 29.77 in 6.2 mi East 11.5 mph - N/A   Partly Cloudy
5:00 AM 76 °F - 74 °F 91% 29.79 in 5 mi East 8.1 mph - - Rain Heavy Rain Showers
5:00 AM 75.2 °F - 73.4 °F 94% 29.77 in 5.0 mi East 8.1 mph - N/A Rain Heavy Rain Showers
6:00 AM 75.2 °F - 73.4 °F 94% 29.77 in 6.2 mi ESE 6.9 mph - N/A   Partly Cloudy
7:00 AM 77.0 °F - 73.4 °F 89% 29.80 in 6.2 mi ESE 5.8 mph - N/A   Partly Cloudy
8:00 AM 78 °F - 75 °F 86%  in 19 mi ESE 6.9 mph - -  
8:00 AM 78.8 °F - 75.2 °F 89% 29.83 in 6.2 mi ESE 6.9 mph - N/A   Partly Cloudy
9:00 AM 80.6 °F 86.2 °F 75.2 °F 84% 29.83 in 6.2 mi ESE 9.2 mph - N/A   Partly Cloudy
10:00 AM 82.4 °F 89.5 °F 75.2 °F 79% 29.83 in 6.2 mi SE 10.4 mph - N/A   Partly Cloudy
11:00 AM 82 °F - 75 °F 75% 29.85 in 31 mi SE 11.5 mph - -   Partly Cloudy
11:00 AM 82.4 °F 89.5 °F 75.2 °F 79% 29.83 in 6.2 mi SE 11.5 mph - N/A   Unknown
12:00 PM 82.4 °F 89.5 °F 75.2 °F 79% 29.83 in 6.2 mi SE 12.7 mph - N/A   Scattered Clouds
1:00 PM 80.6 °F 86.2 °F 75.2 °F 84% 29.80 in 6.2 mi SE 11.5 mph - N/A   Scattered Clouds
2:00 PM 83 °F - 74 °F 68% 29.78 in 31 mi East 10.4 mph - -   Scattered Clouds
2:00 PM 84.2 °F 90.9 °F 73.4 °F 70% 29.77 in 6.2 mi East 10.4 mph - N/A   Partly Cloudy
3:00 PM 84.2 °F 92.3 °F 75.2 °F 74% 29.74 in 6.2 mi East 9.2 mph - N/A   Partly Cloudy
4:00 PM 82.4 °F 89.5 °F 75.2 °F 79% 29.74 in 6.2 mi East 8.1 mph - N/A   Partly Cloudy
5:00 PM 82 °F - 75 °F 73% 29.74 in 31 mi ENE 8.1 mph - -   Scattered Clouds
5:00 PM 82.4 °F 89.5 °F 75.2 °F 79% 29.74 in 6.2 mi ENE 8.1 mph - N/A   Partly Cloudy
6:00 PM 80.6 °F 86.2 °F 75.2 °F 84% 29.74 in 6.2 mi NE 6.9 mph - N/A   Partly Cloudy
7:00 PM 80.6 °F 86.2 °F 75.2 °F 84% 29.77 in 6.2 mi NE 8.1 mph - N/A   Partly Cloudy
8:00 PM 80 °F - 76 °F 82% 29.80 in 31 mi NE 6.9 mph - -   Scattered Clouds
8:00 PM 80.6 °F 86.2 °F 75.2 °F 84% 29.80 in 6.2 mi NE 6.9 mph - N/A   Partly Cloudy
9:00 PM 80.6 °F 86.2 °F 75.2 °F 84% 29.83 in 6.2 mi East 6.9 mph - N/A   Partly Cloudy
10:00 PM 80.6 °F 86.2 °F 75.2 °F 84% 29.83 in 6.2 mi East 6.9 mph - N/A   Partly Cloudy